Location: Maccacari
(45.1333°N, 11.1333°E)
Time: 14:52:18
(UTC+00:00)

S-56A Canister/Altair - Pass Details

Date: 21 January 2021
Orbit: 631 x 2501 km, 38.9° (Epoch: 01 March)

Event Time Altitude Azimuth Distance (km) Brightness Sun altitude
Rises 02:38:32 0° 229° (SW) 2,925 - -43.3°
Reaches altitude 10° 02:41:04 10° 216° (SW) 2,001 - -42.8°
Maximum altitude 02:44:46 26° 158° (SSE) 1,284 - -42.2°
Exits shadow 02:48:33 11° 104° (ESE) 2,132 10.3 -41.6°
Drops below altitude 10° 02:48:54 10° 102° (ESE) 2,250 10.5 -41.5°
Sets 02:51:56 0° 90° (E) 3,378 11.6 -41.0°
